CAPE
0 0 0 0 0 0 0 0 0 0 0 0 0 0 0 0 0 0 0 0 0 0 0 0 0 0 0 0 0 32 10 8 13 5 1 0 0 0 0 0 0 0 0 0
0 0 0 0 0 0 0 0 0 0 0 0 0 0 0 0 0 0 0 0 0 0 0 0 0 0 0 0 0 7 44 16 31 2 3 1 0 0 0 0 0 0 0 0
0 0 0 0 0 0 0 0 0 0 0 0 0 0 0 0 0 0 0 0 0 0 0 0 0 0 0 0 0 0 3 5 24 33 8 2 0 0 1 0 0 0 0 0
0 0 0 0 0 0 0 0 0 0 0 0 0 0 0 0 0 0 0 0 0 0 0 0 0 0 0 0 0 0 0 1 39 59 44 6 4 2 0 0 0 0 1 0
1 0 0 0 0 0 0 0 0 0 0 0 0 0 0 0 0 0 0 12 0 0 0 0 0 0 0 0 0 0 0 0 0 2 0 3 18 32 17 4 3 3 1 1
0 0 0 0 0 0 0 0 0 0 0 0 0 0 0 0 0 0 0 0 0 0 0 0 0 0 0 0 0 0 0 0 0 0 0 0 0 0 0 0 0 0 0 0
0 0 0 0 0 0 0 0 0 0 0 0 0 0 0 0 0 0 0 0 0 0 0 0 0 0 0 0 0 0 0 0 0 0 0 0 0 0 0 0 0 0 0 0
0 0 0 0 0 0 0 0 1 0 0 0 0 0 0 0 0 0 0 0 0 0 0 0 0 0 0 0 0 0 0 0 0 0 0 0 0 0 0 0 0 0 0 0
0 0 0 0 0 0 0 0 0 0 1 0 0 0 0 0 1 0 0 0 0 0 0 0 0 0 0 0 0 0 0 0 0 0 0 0 0 0 0 0 1 1 0 0
0 0 0 0 0 0 0 0 0 0 0 0 0 0 0 0 0 1 0 0 0 0 1 0 0 0 0 0 0 0 0 0 0 0 0 0 0 0 0 0 0 0 0 0
0 0 0 0 0 0 0 0 0 0 2 0 0 0 1 1 1 2 2 1 1 1 1 1 0 0 0 0 0 0 0 0 0 0 0 0 1 1 1 1 1 0 0 0
0 0 0 0 0 0 0 0 0 0 0 0 0 0 0 0 1 1 2 1 2 2 2 1 0 0 0 0 0 0 1 1 0 0 0 1 0 0 0 0 0 0 0 0
0 0 0 0 0 0 0 0 0 0 0 0 0 0 0 0 0 1 0 0 1 1 1 0 0 0 0 0 0 2 2 4 3 1 1 1 0 0 1 2 1 0 0 1
0 0 0 0 0 0 0 0 0 0 0 0 0 0 0 0 0 0 0 0 0 0 0 0 0 0 0 0 0 0 0 0 0 1 1 1 1 1 2 2 2 2 1 1
0 0 0 0 0 0 0 0 0 0 0 0 0 0 0 0 0 0 0 0 0 0 0 0 0 0 0 0 0 0 0 0 0 0 0 0 0 0 0 1 0 1 0 0
0 0 0 0 0 0 0 0 0 0 0 0 0 0 0 0 0 0 0 0 0 0 0 0 0 0 0 0 0 0 0 0 0 0 0 0 0 0 0 0 0 0 0 0
0 0 0 0 0 0 0 0 0 1 0 0 0 0 0 0 0 0 0 0 0 0 0 0 0 0 0 0 0 0 0 0 0 0 0 0 0 0 0 0 0 0 0 1
0 0 0 0 0 0 0 0 0 0 0 0 0 0 0 0 0 0 0 0 0 0 0 0 0 0 0 0 0 0 0 0 0 0 0 0 0 0 0 0 0 0 0 0
0 0 0 0 0 0 0 0 0 0 0 0 0 0 0 0 0 0 0 0 0 0 0 0 0 0 0 0 0 0 0 0 0 0 0 0 0 0 0 0 0 0 0 0
0 0 0 0 0 0 0 0 0 0 0 0 0 0 0 0 0 0 0 0 0 0 0 0 0 0 0 0 0 0 0 0 0 0 0 0 0 0 0 0 0 0 0 0
0 0 0 0 0 0 0 0 0 0 0 0 0 0 0 0 0 0 0 0 0 0 0 0 0 0 0 0 0 0 0 0 0 0 0 0 0 0 0 0 0 0 0 0
0 0 0 0 0 0 0 0 0 0 0 0 0 0 0 0 0 0 0 0 0 1 0 0 0 1 4 0 0 0 0 0 0 0 0 0 0 0 0 0 0 0 0 0
0 0 0 0 0 0 0 0 0 0 0 0 0 0 0 0 0 0 0 0 0 0 0 0 1 4 0 0 0 0 0 0 0 0 0 0 0 0 0 0 0 0 0 0
0 0 0 0 0 0 0 0 0 0 0 0 0 0 0 0 0 0 0 0 0 0 0 0 0 3 0 0 0 0 0 0 0 0 0 0 0 0 0 0 0 0 0 0
0 0 0 0 0 0 0 0 0 0 0 0 0 0 0 0 0 0 0 0 0 0 0 0 1 1 0 0 0 0 0 0 0 0 0 0 0 0 0 0 0 0 0 0
0 0 0 0 0 0 0 0 0 0 0 0 0 0 0 0 0 0 0 0 0 0 0 0 0 0 0 0 0 0 0 0 0 0 0 0 0 0 0 0 0 0 0 0
0 0 0 0 0 0 0 0 0 0 0 0 0 0 0 0 0 0 0 0 0 0 0 0 0 0 0 0 0 0 0 0 0 0 0 0 0 0 0 0 0 0 0 0
CIN
-0 -0 -0 -0 -0 -0 -0 -0 -0 -0 -0 -0 -0 -0 -0 -0 -0 -0 -0 -0 -0 -0 -0 -0 -0 -0 -0 -0 -0 -44 -19 -20 -17 -27 -17 -11 -0 -0 -0 -0 -0 -0 -0 -0
-0 -0 -0 -0 -0 -0 -0 -0 -0 -0 -0 -0 -0 -0 -0 -0 -0 -0 -0 -0 -0 -0 -0 -0 -0 -0 -0 -0 -0 -76 -31 -22 -42 -32 -31 -13 -0 -21 -0 -0 -0 -0 -0 -0
-0 -0 -0 -0 -0 -0 -0 -0 -0 -0 -0 -0 -0 -0 -0 -0 -0 -0 -0 -0 -0 -0 -0 -0 -0 -0 -0 -0 -0 -0 -3 -10 -40 -33 -26 -25 -27 -26 -22 -0 -0 -0 -0 -0
-0 -0 -0 -0 -0 -0 -0 -0 -0 -0 -0 -0 -0 -0 -0 -0 -0 -0 -0 -0 -0 -0 -0 -0 -0 -0 -0 -0 -0 -0 -0 -9 -64 -33 -36 -18 -19 -20 -6 -0 -0 -0 -0 -0
-14 -0 -0 -0 -0 -0 -0 -0 -0 -0 -0 -0 -0 -0 -0 -0 -0 -0 -0 -30 -0 -0 -0 -0 -0 -0 -0 -0 -0 -0 -0 -0 -0 -42 -31 -24 -42 -46 -55 -23 -30 -45 -0 -0
-0 -0 -0 -0 -0 -0 -0 -0 -0 -0 -0 -0 -0 -0 -0 -0 -0 -0 -0 -0 -0 -0 -0 -0 -0 -0 -0 -0 -0 -0 -0 -0 -0 -0 -0 -0 -0 -0 -0 -0 -0 -0 -0 -0
-0 -0 -0 -0 -0 -0 -0 -0 -0 -0 -0 -0 -0 -0 -0 -0 -0 -0 -0 -0 -0 -0 -0 -0 -0 -0 -0 -0 -0 -0 -0 -0 -0 -0 -0 -0 -0 -0 -0 -0 -0 -0 -0 -0
-0 -0 -0 -0 -0 -0 -0 -0 -0 -0 -0 -0 -0 -0 -0 -0 -0 -0 -0 -0 -0 -0 -0 -0 -0 -0 -0 -0 -0 -0 -0 -0 -0 -0 -0 -0 -0 -0 -0 -0 -0 -0 -0 -0
-0 -0 -0 -0 -0 -0 -0 -0 -0 -0 -0 -0 -0 -0 -0 -0 -0 -0 -0 -0 -0 -0 -0 -0 -0 -0 -0 -0 -0 -0 -0 -0 -0 -0 -0 -0 -0 -0 -0 -0 -0 -0 -0 -0
-0 -0 -0 -0 -0 -0 -0 -0 -0 -0 -0 -0 -0 -0 -0 -0 -0 -0 -0 -0 -0 -0 -0 -0 -0 -0 -0 -0 -0 -0 -0 -0 -0 -0 -0 -0 -0 -0 -0 -0 -0 -0 -0 -0
-0 -0 -0 -0 -0 -0 -0 -0 -0 -0 -0 -0 -0 -0 -0 -0 -0 -0 -0 -0 -0 -0 -0 -0 -0 -0 -0 -0 -0 -0 -0 -0 -0 -0 -0 -0 -0 -0 -0 -0 -0 -0 -0 -0
-0 -0 -0 -0 -0 -0 -0 -0 -0 -0 -0 -0 -0 -0 -0 -0 -0 -0 -0 -0 -0 -0 -0 -0 -0 -0 -0 -0 -0 -0 -0 -0 -0 -0 -0 -0 -0 -0 -0 -0 -0 -0 -0 -0
-0 -0 -0 -0 -0 -0 -0 -0 -0 -0 -0 -0 -0 -0 -0 -0 -0 -0 -0 -0 -0 -0 -0 -0 -0 -0 -0 -0 -0 -0 -0 -0 -0 -0 -0 -0 -0 -0 -0 -0 -0 -0 -0 -0
-0 -0 -0 -0 -0 -0 -0 -0 -0 -0 -0 -0 -0 -0 -0 -0 -0 -0 -0 -0 -0 -0 -0 -0 -0 -0 -0 -0 -0 -0 -0 -0 -0 -0 -0 -0 -0 -0 -0 -0 -0 -0 -0 -0
-0 -0 -0 -0 -0 -0 -0 -0 -0 -0 -0 -0 -0 -0 -0 -0 -0 -0 -0 -0 -0 -0 -0 -0 -0 -0 -0 -0 -0 -0 -0 -0 -0 -0 -0 -0 -0 -0 -0 -0 -0 -0 -0 -0
-0 -0 -0 -0 -0 -0 -0 -0 -0 -0 -0 -0 -0 -0 -0 -0 -0 -0 -0 -0 -0 -0 -0 -0 -0 -0 -0 -0 -0 -0 -0 -0 -0 -0 -0 -0 -0 -0 -0 -0 -0 -0 -0 -1
-0 -0 -0 -0 -0 -0 -0 -0 -0 -0 -0 -0 -0 -0 -0 -0 -0 -0 -0 -0 -0 -0 -0 -0 -0 -0 -0 -0 -0 -0 -0 -0 -0 -0 -0 -0 -0 -0 -0 -0 -0 -0 -0 -0
-0 -0 -0 -0 -0 -0 -0 -0 -0 -0 -0 -0 -0 -0 -0 -0 -0 -0 -0 -0 -0 -0 -0 -0 -0 -0 -0 -0 -0 -0 -0 -0 -0 -0 -0 -0 -0 -0 -0 -0 -0 -0 -0 -0
-0 -0 -0 -0 -0 -0 -0 -0 -0 -0 -0 -0 -0 -0 -0 -0 -0 -0 -0 -0 -0 -0 -0 -0 -0 -0 -0 -0 -0 -0 -0 -0 -0 -0 -0 -0 -0 -0 -0 -0 -0 -0 -0 -0
-0 -0 -0 -0 -0 -0 -0 -0 -0 -0 -0 -0 -0 -0 -0 -0 -0 -0 -0 -0 -0 -2 -0 -0 -0 -0 -0 -0 -0 -0 -0 -0 -0 -0 -0 -0 -0 -0 -0 -0 -0 -0 -0 -0
-0 -0 -0 -0 -0 -0 -0 -0 -0 -0 -0 -0 -0 -0 -0 -0 -0 -0 -0 -0 -0 -2 -0 -0 -0 -0 -0 -0 -0 -0 -0 -0 -0 -0 -0 -0 -0 -0 -0 -0 -0 -0 -0 -0
-0 -0 -0 -0 -0 -0 -0 -0 -0 -0 -0 -0 -0 -0 -0 -0 -0 -0 -0 -0 -0 -0 -0 -0 -0 -2 -1 -0 -0 -0 -0 -0 -0 -0 -0 -0 -0 -0 -0 -0 -0 -0 -0 -0
-0 -0 -0 -0 -0 -0 -0 -0 -0 -0 -0 -0 -0 -0 -0 -0 -0 -0 -0 -0 -0 -0 -0 -0 -1 -1 -0 -0 -0 -0 -0 -0 -0 -0 -0 -0 -0 -0 -0 -0 -0 -0 -0 -1
-0 -0 -0 -0 -0 -0 -0 -0 -0 -0 -0 -0 -0 -0 -0 -0 -0 -0 -0 -0 -0 -3 -0 -0 -1 -1 -0 -0 -0 -0 -0 -0 -0 -0 -0 -0 -0 -0 -0 -0 -0 -0 -1 -0
-0 -0 -0 -0 -0 -0 -0 -0 -0 -0 -0 -0 -0 -0 -0 -0 -0 -0 -0 -0 -0 -0 -0 -0 -0 -1 -0 -0 -0 -0 -0 -0 -0 -1 -0 -0 -0 -0 -0 -0 -0 -0 -0 -0
-0 -0 -0 -0 -0 -0 -0 -0 -0 -0 -0 -0 -0 -0 -0 -0 -0 -0 -0 -0 -0 -0 -0 -0 -0 -0 -0 -0 -0 -0 -0 -0 -0 -0 -0 -0 -0 -0 -0 -0 -0 -0 -0 -0
-0 -0 -0 -0 -0 -0 -0 -0 -0 -0 -0 -0 -0 -0 -0 -0 -0 -0 -0 -0 -0 -0 -0 -0 -0 -0 -0 -0 -0 -0 -0 -0 -0 -0 -0 -0 -0 -0 -0 -0 -0 -0 -0 -0
Wind_Speed
40 41 42 49 53 43 43 40 45 52 58 52 51 44 43 40 37 34 32 32 25 23 22 21 20 19 20 19 18 14 13 10 8 9 11 14 22 27 27 29 30 30 31 32
43 41 43 48 50 57 52 50 51 53 59 51 52 48 43 41 39 38 35 32 29 22 23 23 22 21 20 20 19 17 15 15 13 11 9 12 15 24 28 29 31 31 32 32
39 36 37 46 47 48 50 50 49 57 57 50 51 53 46 41 39 37 35 34 33 31 22 21 21 22 22 21 19 17 18 17 16 15 13 13 15 17 21 27 28 29 33 33
33 29 35 26 25 31 40 45 41 47 51 50 49 49 50 45 43 41 36 33 38 31 24 21 19 20 19 19 18 16 17 17 17 15 15 15 13 14 19 24 26 29 29 28
22 24 28 28 30 35 39 50 45 47 46 49 48 54 57 46 45 46 41 28 31 27 25 22 20 19 17 17 17 17 17 18 17 16 16 16 16 16 15 15 20 26 29 29
25 25 25 24 35 38 37 49 28 38 46 50 50 59 60 44 42 39 29 22 22 22 21 20 19 16 17 18 16 16 16 16 17 17 17 19 19 19 19 18 19 21 24 27
26 25 23 27 38 36 32 37 47 54 58 55 55 52 53 51 49 35 27 21 19 19 20 20 17 14 14 14 14 13 12 12 13 14 15 17 17 17 17 17 17 18 19 21
18 22 23 36 35 32 34 43 46 49 52 60 55 48 45 44 40 28 21 19 16 16 17 16 15 11 10 11 11 11 10 11 12 14 15 15 15 17 16 16 16 17 18 19
7 12 20 25 27 31 31 38 44 46 42 27 22 40 38 37 33 21 17 14 13 10 10 10 10 10 9 11 9 8 9 10 11 12 14 15 15 15 16 16 16 17 18 19
5 6 16 16 18 23 27 22 24 20 19 7 3 27 33 24 20 15 11 8 8 9 7 6 7 7 8 8 8 7 8 9 11 12 13 13 13 14 14 14 15 17 17 18
7 1 11 12 20 25 27 23 24 35 25 9 10 5 10 16 15 12 9 4 3 4 3 4 5 6 7 8 7 7 8 9 10 11 11 12 13 13 13 14 14 16 17 17
6 11 5 14 20 26 25 23 23 24 24 12 7 5 8 5 8 8 6 3 3 0 3 6 6 7 9 10 9 9 10 11 11 12 12 12 12 12 14 14 15 15 16 16
4 10 5 11 19 24 23 23 24 24 18 14 9 5 4 4 4 5 3 3 2 2 4 6 9 10 11 12 12 11 12 12 13 13 14 14 14 15 15 15 16 18 18 18
15 8 10 16 17 20 22 20 23 21 18 14 12 8 7 6 9 9 10 8 9 8 8 9 10 12 13 14 13 13 13 14 14 15 15 15 16 16 16 16 17 19 20 19
14 12 7 8 11 15 18 19 19 18 15 14 10 8 7 6 10 10 9 7 8 11 12 12 12 14 15 14 14 14 14 15 15 15 15 15 15 15 16 16 17 18 19 20
16 14 12 14 15 15 15 17 17 14 13 11 11 9 8 9 10 10 9 11 12 12 13 13 14 15 16 15 15 15 15 16 16 15 15 16 16 16 16 17 17 18 19 19
21 23 21 20 19 18 17 18 16 14 13 12 11 12 12 9 12 13 13 14 14 14 14 15 16 16 16 16 16 15 16 17 17 17 17 17 17 17 18 18 19 19 20 21
20 19 20 20 21 21 21 20 20 19 17 16 16 16 16 15 15 14 16 15 14 14 16 16 16 17 17 17 17 17 18 18 18 18 18 18 19 19 19 20 20 21 21 22
29 27 25 25 25 25 24 23 23 21 21 20 19 18 18 18 17 17 16 17 17 17 18 18 18 19 19 19 20 19 19 19 19 20 20 20 21 21 22 22 22 23 23 23
32 32 32 30 29 28 27 27 27 25 25 24 23 22 22 22 21 20 18 19 19 19 20 21 21 22 22 22 23 22 22 22 22 22 22 23 23 23 24 24 25 25 25 25
36 35 34 34 33 32 31 30 30 29 28 27 26 26 25 24 23 22 22 22 24 24 23 24 24 25 24 24 25 24 24 24 24 25 25 26 26 27 27 27 27 27 28 28
39 38 37 36 35 35 34 32 32 31 30 30 29 28 28 27 26 25 25 25 26 27 25 26 27 28 26 26 26 26 26 26 26 27 27 28 29 29 29 29 30 30 30 30
40 38 38 37 37 36 35 33 33 32 32 32 31 31 29 30 28 29 30 29 29 30 28 29 30 30 27 28 28 29 29 29 30 30 30 30 29 31 31 31 32 32 33 31
38 37 38 36 36 35 35 34 34 33 32 33 31 31 31 31 29 29 30 32 32 32 31 31 31 31 29 30 31 31 31 32 32 32 31 31 32 32 32 32 33 32 31 32
37 37 36 35 35 34 34 33 34 33 33 32 32 32 31 30 29 32 33 33 32 32 30 32 32 31 31 32 32 32 32 32 32 32 32 32 31 33 33 32 32 32 31 31
37 36 34 32 32 33 32 33 33 31 32 32 34 32 31 30 31 32 32 31 31 32 31 31 30 31 31 32 31 31 31 31 31 31 31 31 31 31 31 31 30 30 29 29
26 28 31 30 31 31 31 32 32 33 31 32 33 32 30 30 30 32 32 31 31 30 30 29 29 31 31 31 30 30 30 30 30 30 30 30 29 29 28 28 29 29 28 27
Wind_Direction
279 279 276 273 271 275 271 272 268 266 265 266 267 275 278 281 284 286 283 292 279 285 292 299 306 304 298 296 299 295 294 292 279 261 255 258 258 255 254 253 254 255 257 263
281 283 278 275 273 270 270 271 269 270 268 269 269 272 273 275 279 277 277 285 287 284 284 290 296 302 303 298 294 295 294 292 287 281 263 259 265 263 259 260 258 258 259 263
284 286 286 277 276 274 273 272 272 267 266 271 269 266 269 270 272 273 274 281 280 277 285 286 293 295 295 296 297 298 292 293 289 284 285 280 271 266 267 265 265 266 263 264
291 295 284 291 310 293 286 277 276 275 271 272 272 271 267 265 266 269 273 278 275 270 278 287 293 293 295 295 295 293 293 293 292 290 289 287 283 275 272 270 269 267 268 270
307 306 296 300 309 304 294 279 281 279 278 273 276 271 260 268 266 263 262 278 271 273 277 286 291 294 292 296 296 293 292 291 294 295 294 300 287 290 288 282 277 275 271 273
310 306 302 312 314 306 301 279 302 292 282 278 276 262 256 265 269 267 258 273 269 274 281 286 290 297 291 291 294 294 292 293 295 296 296 293 294 295 294 293 291 285 282 278
297 302 298 307 315 307 298 288 287 281 275 275 270 265 263 264 264 253 246 254 272 286 284 285 290 291 287 291 292 299 303 307 305 305 305 303 301 301 300 300 300 296 294 292
278 293 301 312 305 310 283 285 282 274 261 258 260 263 260 257 258 239 240 253 271 279 286 292 288 287 289 289 294 303 308 313 316 316 313 314 314 309 309 306 302 299 295 294
165 240 273 290 291 293 293 295 297 285 268 213 242 251 251 249 245 229 232 244 259 273 294 297 300 301 295 291 296 307 315 319 322 324 325 324 319 313 308 307 305 301 299 299
224 276 298 293 299 305 309 314 315 308 339 89 219 248 240 225 216 214 218 225 245 252 276 305 317 324 315 313 315 329 328 328 330 333 334 337 339 331 322 313 309 308 306 304
119 39 321 330 323 320 324 329 338 6 19 348 264 189 183 198 198 191 200 186 221 246 293 335 349 342 327 332 328 340 345 344 341 347 347 350 349 342 340 336 325 316 316 312
103 332 357 332 329 335 339 346 351 7 29 61 92 136 162 137 184 187 195 158 143 7 357 4 6 360 345 344 335 330 332 333 336 338 340 340 341 350 3 357 350 345 343 331
320 331 31 351 339 348 352 355 1 10 19 31 40 74 88 64 92 117 129 101 74 17 8 3 8 7 351 344 343 341 335 330 326 326 327 326 326 323 321 330 342 347 342 341
335 357 3 353 351 350 356 2 8 16 18 20 17 20 41 63 63 66 56 47 41 29 17 7 359 354 344 342 343 343 340 341 333 328 325 324 323 324 325 325 324 327 335 338
339 340 345 353 357 356 357 2 12 18 28 36 46 48 41 50 42 42 37 33 33 30 18 9 1 354 350 350 353 350 348 347 344 341 339 337 335 335 333 332 334 334 332 336
327 332 341 346 346 348 352 355 0 5 12 18 21 23 24 24 28 30 26 18 22 15 5 2 359 352 352 350 353 353 351 354 351 346 343 341 339 338 337 337 337 335 333 334
328 334 333 336 337 338 341 342 343 345 346 349 350 353 356 353 9 10 6 6 10 6 360 357 354 347 348 346 346 343 344 346 348 346 344 342 341 340 338 336 334 334 332 331
318 314 317 319 323 327 331 333 333 334 333 329 332 338 344 347 346 347 355 350 352 353 350 346 341 337 336 343 337 335 340 342 341 338 337 338 337 337 336 335 333 331 329 331
327 320 316 316 318 320 320 323 324 322 324 325 325 330 331 333 332 334 335 337 337 331 330 327 327 329 329 332 335 332 333 333 331 331 332 331 330 330 328 327 326 326 325 325
320 322 323 319 317 316 315 318 319 319 321 321 323 323 324 326 325 324 325 328 322 318 320 320 320 323 326 329 329 328 325 325 324 325 325 325 325 324 323 322 321 321 321 320
318 317 318 319 319 319 316 315 317 316 316 320 319 319 317 315 319 320 318 317 319 320 321 319 318 317 322 325 324 323 322 321 321 320 319 318 317 317 316 316 315 315 315 314
317 315 315 315 314 313 314 316 316 314 313 315 316 317 314 314 315 318 319 315 315 315 320 317 314 315 320 322 320 319 319 318 317 316 316 316 315 315 314 314 313 312 312 312
320 319 316 315 314 313 313 314 314 313 313 313 311 312 312 310 312 311 309 312 313 309 315 312 312 314 320 319 317 315 314 314 314 313 313 313 313 313 312 311 310 310 309 310
324 323 320 319 317 315 315 316 316 314 313 313 311 313 311 310 309 314 314 312 310 310 311 311 312 312 315 315 314 313 312 312 312 312 312 312 311 311 310 310 310 310 310 309
330 325 322 320 319 319 318 318 315 314 314 314 314 314 314 313 310 311 313 311 310 310 311 311 311 312 313 313 312 312 312 312 312 312 311 311 311 311 311 311 311 310 310 310
334 330 327 326 323 321 320 319 317 319 317 316 315 313 313 315 315 314 314 313 313 312 312 312 313 314 314 314 314 314 314 314 314 314 313 313 313 313 313 313 313 313 313 312
354 347 338 333 328 325 322 319 318 316 317 317 314 316 318 317 316 317 315 315 315 314 314 314 315 316 315 315 315 316 317 317 317 316 316 315 316 315 315 315 314 313 313 314